Date,TemperatureHighF,TemperatureAvgF,TemperatureLowF,DewpointHighF,DewpointAvgF,DewpointLowF,HumidityHigh,HumidityAvg,HumidityLow,PressureMaxIn,PressureMinIn,WindSpeedMaxMPH,WindSpeedAvgMPH,GustSpeedMaxMPH,PrecipitationSumIn
2013-10-1,82,67,58,62,58,56,94,76,46,30.05,29.95,6,1,11,0.00
2013-10-2,85,71,62,64,60,58,87,71,45,30.05,29.98,6,2,13,0.00
2013-10-3,87,69,58,66,61,57,96,78,47,30.08,29.98,2,0,4,0.00
2013-10-4,88,72,64,67,63,60,91,74,44,30.06,29.97,7,1,8,0.00
2013-10-5,89,74,67,68,64,62,88,72,46,30.04,29.92,3,1,4,0.00
2013-10-6,91,74,61,67,62,58,96,69,37,29.96,29.78,8,1,12,0.00
2013-10-7,69,60,50,63,53,43,91,77,59,30.05,29.67,10,3,22,0.69
2013-10-8,72,56,46,50,46,42,92,70,41,30.27,30.05,4,1,10,0.00
2013-10-9,64,52,42,50,45,41,97,78,60,30.33,30.23,2,0,5,0.00
2013-10-10,56,52,49,54,49,43,97,89,71,30.23,30.05,1,0,4,0.45
2013-10-11,59,55,52,58,55,51,99,98,97,30.04,29.99,1,0,2,0.36
2013-10-12,62,59,56,62,58,56,99,99,97,30.17,30.00,2,0,6,0.38
2013-10-13,59,57,56,59,56,56,99,98,97,30.28,30.15,1,0,4,0.58
2013-10-14,60,57,56,58,56,55,99,98,93,30.28,30.20,1,0,2,0.03
2013-10-15,71,61,56,60,56,52,99,86,65,30.21,30.01,2,0,4,0.00
2013-10-16,70,59,49,60,55,49,99,87,68,30.01,29.86,1,0,2,0.00
2013-10-17,65,62,52,62,58,46,97,89,78,29.86,29.63,13,2,26,0.19
2013-10-18,67,55,46,48,43,40,85,66,39,29.99,29.83,7,2,16,0.00
2013-10-19,59,48,39,49,43,37,96,82,52,29.96,29.74,14,2,21,0.00
2013-10-20,63,49,40,40,37,34,85,64,37,30.06,29.91,7,2,12,0.00
2013-10-21,76,52,36,47,39,33,92,66,32,30.10,29.88,2,0,5,0.00
2013-10-22,58,49,40,47,39,34,89,71,42,29.88,29.81,8,2,10,0.00
2013-10-23,44,40,38,42,37,34,93,88,81,29.92,29.70,4,1,10,0.21
2013-10-24,44,39,36,36,33,28,94,78,58,30.12,29.92,9,3,16,0.06
2013-10-25,47,39,34,35,31,29,83,73,53,30.30,30.11,11,5,23,0.00
2013-10-26,59,45,32,31,28,22,85,54,27,30.28,29.90,9,4,13,0.00
2013-10-27,60,48,40,37,34,31,77,59,39,30.10,29.94,7,2,14,0.00
2013-10-28,67,47,33,43,37,31,94,71,40,30.26,30.10,2,0,5,0.00
2013-10-29,66,48,36,43,38,33,94,70,42,30.37,30.25,2,0,4,0.00
2013-10-30,63,53,44,53,46,39,89,77,65,30.27,30.10,1,0,2,0.00
2013-10-31,66,59,54,57,54,52,91,86,67,30.11,29.60,10,0,13,0.01